EW8956 Weather Reports


Display with metric or nautical units.
time (UTC)temp
F
wind
direction
speed
MPH
gust
MPH
rain 1hr
in
rain 24hr
in
rain mn
in
humidity
%
barometer
mb
20260510023046 65 0 0.0 1.0 0.00 0.00 0.00 78 1013.2
20260510021545 65 224 0.0 2.0 0.00 0.00 0.00 77 1013.0
20260510020050 66 0 0.0 3.0 0.00 0.00 0.00 76 1013.0
20260510014544 66 203 0.0 2.0 0.00 0.00 0.00 75 1012.9
20260510013042 67 0 1.0 6.0 0.00 0.00 0.00 74 1012.5
20260510011552 67 188 0.0 4.0 0.00 0.00 0.00 73 1012.2
20260510010043 68 228 0.0 4.0 0.00 0.00 0.00 71 1011.9
20260510004550 68 0 0.0 4.0 0.00 0.00 0.00 70 1011.7
20260510003108 69 179 0.0 5.0 0.00 0.00 0.00 69 1011.5
20260510001543 69 222 0.0 3.0 0.00 0.00 0.00 68 1011.4
20260510000046 70 0 1.0 6.0 0.00 0.00 0.00 67 1011.3
20260509234557 70 150 0.0 6.0 0.00 0.00 0.00 66 1011.3
20260509233046 71 0 0.0 7.0 0.00 0.00 0.00 66 1011.1
20260509231553 71 0 1.0 6.0 0.00 0.00 0.00 65 1010.9
20260509230057 71 0 2.0 8.0 0.00 0.00 0.00 64 1010.9
20260509224548 72 225 1.0 7.0 0.00 0.00 0.00 64 1010.7
20260509223049 72 0 1.0 5.0 0.00 0.00 0.00 63 1010.5
20260509221548 72 0 0.0 8.0 0.00 0.00 0.00 61 1010.4
20260509220050 73 78 1.0 9.0 0.00 0.00 0.00 60 1010.5
20260509214540 73 240 1.0 12.0 0.00 0.00 0.00 60 1010.5
20260509213055 73 190 3.0 12.0 0.00 0.00 0.00 59 1010.4
20260509211543 73 186 3.0 10.0 0.00 0.00 0.00 58 1010.7
20260509210051 74 217 0.0 13.0 0.00 0.00 0.00 59 1010.3
20260509204542 74 240 1.0 8.0 0.00 0.00 0.00 58 1010.1
20260509203046 73 115 0.0 7.0 0.00 0.00 0.00 60 1010.6
20260509201547 73 187 1.0 10.0 0.00 0.00 0.00 60 1010.6
20260509200053 72 183 1.0 9.0 0.00 0.00 0.00 61 1010.7
20260509194549 72 311 2.0 8.0 0.00 0.00 0.00 63 1010.7
20260509193055 69 220 1.0 11.0 0.00 0.00 0.00 67 1011.1
20260509191554 69 220 2.0 9.0 0.00 0.00 0.00 66 1011.3
20260509190053 70 209 1.0 8.0 0.00 0.00 0.00 65 1011.2
20260509184550 70 0 0.0 12.0 0.00 0.00 0.00 64 1011.2
20260509183124 70 0 1.0 11.0 0.00 0.00 0.00 64 1011.2
20260509181609 69 215 4.0 12.0 0.00 0.00 0.00 65 1011.6
20260509180054 69 218 1.0 9.0 0.00 0.00 0.00 66 1011.8
20260509174547 69 163 1.0 5.0 0.00 0.00 0.00 65 1011.6
20260509173058 70 0 2.0 11.0 0.00 0.00 0.00 65 1011.6
20260509171558 70 223 4.0 12.0 0.00 0.00 0.00 62 1011.8
20260509170056 70 246 2.0 11.0 0.00 0.00 0.00 62 1011.9
20260509164548 69 150 3.0 12.0 0.00 0.00 0.00 67 1012.1
20260509163046 67 193 2.0 9.0 0.00 0.00 0.00 71 1012.6
20260509161544 67 0 1.0 10.0 0.00 0.00 0.00 71 1012.7
20260509160044 68 185 2.0 10.0 0.00 0.00 0.00 70 1012.8
20260509154554 66 221 1.0 6.0 0.00 0.00 0.00 75 1012.8
20260509153046 65 117 2.0 7.0 0.00 0.00 0.00 77 1012.8
20260509151550 64 209 0.0 4.0 0.00 0.00 0.00 77 1012.9
20260509150048 64 221 1.0 6.0 0.00 0.00 0.00 76 1012.8
20260509144543 64 180 1.0 6.0 0.00 0.00 0.00 76 1012.8
20260509143052 64 0 1.0 8.0 0.00 0.00 0.00 76 1012.9
20260509141554 64 135 2.0 9.0 0.00 0.00 0.00 74 1013.0
20260509140059 63 229 2.0 9.0 0.00 0.00 0.00 74 1013.3
20260509134544 62 174 1.0 7.0 0.00 0.00 0.00 74 1013.3
20260509133047 62 211 0.0 5.0 0.00 0.00 0.00 75 1013.7
20260509131540 62 0 1.0 7.0 0.00 0.00 0.00 73 1014.1
20260509130051 61 0 1.0 10.0 0.00 0.00 0.00 73 1014.3
20260509124546 60 0 0.0 4.0 0.00 0.00 0.00 74 1014.2
20260509123053 59 115 0.0 4.0 0.00 0.00 0.00 76 1014.0
20260509121545 57 0 0.0 5.0 0.00 0.00 0.00 80 1013.9
20260509120051 56 163 1.0 3.0 0.00 0.00 0.00 82 1014.0
20260509114548 54 0 0.0 4.0 0.00 0.00 0.00 86 1013.7
20260509113050 53 0 0.0 1.0 0.00 0.00 0.00 87 1013.7
20260509111551 53 0 0.0 1.0 0.00 0.00 0.00 90 1013.7
20260509110051 51 0 0.0 1.0 0.00 0.00 0.00 89 1013.7
20260509104554 50 0 0.0 0.0 0.00 0.00 0.00 87 1013.3
20260509103047 50 0 0.0 0.0 0.00 0.00 0.00 86 1013.1
20260509101555 50 0 0.0 0.0 0.00 0.00 0.00 85 1012.9
20260509100051 51 0 0.0 0.0 0.00 0.00 0.00 84 1012.9
20260509094543 51 0 0.0 1.0 0.00 0.00 0.00 86 1012.9
20260509093055 51 0 0.0 1.0 0.00 0.00 0.00 83 1012.9
20260509091548 51 0 0.0 1.0 0.00 0.00 0.00 81 1013.0
20260509090051 52 0 0.0 1.0 0.00 0.00 0.00 79 1013.2
20260509084554 53 0 0.0 1.0 0.00 0.00 0.00 77 1013.4
20260509083051 53 0 0.0 1.0 0.00 0.00 0.00 76 1013.2
20260509081546 54 0 0.0 1.0 0.00 0.00 0.00 73 1013.4
20260509080056 54 0 0.0 1.0 0.00 0.00 0.00 72 1013.4
20260509074544 55 0 0.0 1.0 0.00 0.00 0.00 70 1013.5
20260509073051 55 0 0.0 4.0 0.00 0.00 0.00 70 1013.6
20260509071545 55 0 0.0 2.0 0.00 0.00 0.00 68 1013.7
20260509070049 56 0 0.0 1.0 0.00 0.00 0.00 66 1013.8
20260509064547 58 0 0.0 2.0 0.00 0.00 0.00 63 1013.9
20260509063055 58 0 0.0 3.0 0.00 0.00 0.00 61 1013.9
20260509061558 58 0 0.0 4.0 0.00 0.00 0.00 61 1014.4
20260509060054 58 0 0.0 3.0 0.00 0.00 0.00 61 1014.5
20260509054558 58 0 0.0 2.0 0.00 0.01 0.00 61 1014.7
20260509053101 58 0 0.0 2.0 0.00 0.01 0.00 59 1014.9
20260509051557 59 0 0.0 1.0 0.00 0.01 0.00 59 1015.3
20260509050050 59 0 0.0 2.0 0.00 0.01 0.00 59 1015.4
20260509044548 59 0 0.0 5.0 0.00 0.01 0.00 55 1015.5
20260509043046 60 0 1.0 5.0 0.00 0.01 0.00 54 1015.4
20260509041546 59 0 1.0 5.0 0.00 0.01 0.00 53 1015.4
20260509040052 58 0 0.0 1.0 0.00 0.01 0.00 55 1015.3
20260509034546 58 0 0.0 1.0 0.00 0.01 0.01 56 1015.4
20260509033059 58 0 0.0 1.0 0.00 0.01 0.01 57 1015.4
20260509031552 58 0 0.0 1.0 0.00 0.01 0.01 58 1015.4
20260509030041 59 0 0.0 0.0 0.00 0.01 0.01 59 1015.6
20260509024544 59 0 0.0 1.0 0.00 0.01 0.01 56 1015.7